N605VV KLNK-KAPA

Flight info

Callsign N605VV
Flight time N/A
Altitude 36000
Route FRAAY DUNNN6
Aircraft CL60/M-SBDE1E2E3FGHIJ1J4J5J7M3RWXYZ/LB1V1D1

Departure

Time N/A
Airport Lincoln Airport (KLNK)

Arrival

Time 2026-05-03 21:08
Airport Centennial Airport (KAPA)
Time Latitude Longitude Altitude Speed Heading
2026-05-03 20:15 39.97669 -98.99325 35925 ft 422 kts 245°
2026-05-03 20:15 39.94672 -99.05915 35924 ft 423 kts 245°
2026-05-03 20:16 39.91663 -99.12518 35913 ft 422 kts 245°
2026-05-03 20:16 39.88645 -99.19128 35909 ft 423 kts 245°
2026-05-03 20:17 39.85656 -99.25660 35918 ft 423 kts 245°
2026-05-03 20:17 39.82635 -99.32248 35929 ft 423 kts 245°
2026-05-03 20:18 39.79626 -99.38796 35935 ft 423 kts 245°
2026-05-03 20:18 39.76597 -99.45373 35927 ft 424 kts 245°
2026-05-03 20:19 39.73556 -99.51964 35925 ft 424 kts 245°
2026-05-03 20:19 39.70531 -99.58503 35929 ft 424 kts 245°
2026-05-03 20:20 39.67562 -99.64908 35925 ft 424 kts 245°
2026-05-03 20:20 39.64531 -99.71435 35929 ft 424 kts 244°
2026-05-03 20:21 39.61485 -99.77981 35921 ft 425 kts 244°
2026-05-03 20:21 39.58435 -99.84520 35928 ft 424 kts 244°
2026-05-03 20:22 39.55381 -99.91054 35925 ft 425 kts 244°
2026-05-03 20:22 39.52296 -99.97639 35927 ft 424 kts 244°
2026-05-03 20:23 39.49297 -100.04029 35919 ft 425 kts 244°
2026-05-03 20:23 39.46240 -100.10530 35923 ft 425 kts 244°
2026-05-03 20:24 39.43153 -100.17080 35917 ft 425 kts 244°
2026-05-03 20:24 39.40079 -100.23588 35928 ft 425 kts 244°
2026-05-03 20:25 39.37036 -100.30016 35922 ft 426 kts 244°
2026-05-03 20:25 39.33961 -100.36500 35929 ft 426 kts 244°
2026-05-03 20:26 39.30850 -100.43046 35934 ft 426 kts 244°
2026-05-03 20:26 39.27753 -100.49547 35936 ft 425 kts 244°
2026-05-03 20:27 39.24747 -100.55847 35937 ft 426 kts 244°
2026-05-03 20:27 39.21647 -100.62329 35938 ft 426 kts 244°
2026-05-03 20:28 39.18527 -100.68841 35939 ft 427 kts 243°
2026-05-03 20:28 39.15391 -100.75371 35940 ft 427 kts 243°
2026-05-03 20:29 39.12270 -100.81857 35946 ft 427 kts 243°
2026-05-03 20:29 39.10711 -100.85090 36178 ft 428 kts 243°
2026-05-03 20:29 39.09134 -100.88358 36160 ft 427 kts 243°
2026-05-03 20:29 39.07564 -100.91611 35771 ft 427 kts 243°
2026-05-03 20:30 39.06007 -100.94829 36148 ft 425 kts 243°
2026-05-03 20:30 39.04432 -100.98084 35978 ft 428 kts 243°
2026-05-03 20:30 39.02852 -101.01347 35955 ft 427 kts 243°
2026-05-03 20:31 38.99721 -101.07797 35930 ft 426 kts 243°
2026-05-03 20:31 38.96584 -101.14252 35944 ft 426 kts 243°
2026-05-03 20:32 38.93450 -101.20685 35717 ft 425 kts 243°
2026-05-03 20:32 38.91872 -101.23917 35906 ft 423 kts 243°
2026-05-03 20:32 38.90324 -101.27088 35929 ft 425 kts 243°
2026-05-03 20:33 38.87156 -101.33566 36227 ft 428 kts 243°
2026-05-03 20:33 38.85573 -101.36800 36010 ft 430 kts 243°
2026-05-03 20:33 38.83976 -101.40054 35978 ft 428 kts 243°
2026-05-03 20:34 38.80824 -101.46469 35961 ft 426 kts 243°
2026-05-03 20:34 38.77670 -101.52878 35963 ft 426 kts 243°
2026-05-03 20:35 38.74530 -101.59245 35963 ft 426 kts 243°
2026-05-03 20:35 38.71349 -101.65683 35976 ft 427 kts 242°
2026-05-03 20:36 38.68309 -101.72186 35975 ft 423 kts 248°
2026-05-03 20:36 38.66512 -101.79242 35983 ft 416 kts 262°
2026-05-03 20:37 38.66069 -101.86567 35985 ft 414 kts 270°
2026-05-03 20:37 38.65913 -101.93831 35989 ft 415 kts 270°
2026-05-03 20:38 38.65743 -102.01148 35991 ft 415 kts 269°
2026-05-03 20:38 38.65564 -102.08506 36000 ft 414 kts 270°
2026-05-03 20:39 38.65377 -102.15849 35998 ft 414 kts 270°
2026-05-03 20:39 38.65183 -102.23188 35996 ft 414 kts 270°
2026-05-03 20:40 38.64984 -102.30524 36013 ft 414 kts 269°
2026-05-03 20:40 38.64778 -102.37880 36024 ft 414 kts 269°
2026-05-03 20:41 38.64566 -102.45222 36025 ft 414 kts 269°
2026-05-03 20:41 38.64348 -102.52631 36023 ft 414 kts 269°
2026-05-03 20:42 38.64125 -102.59980 36021 ft 414 kts 269°
2026-05-03 20:42 38.63898 -102.67335 36022 ft 414 kts 269°
2026-05-03 20:43 38.63667 -102.74665 36025 ft 415 kts 269°
2026-05-03 20:43 38.63428 -102.82070 36028 ft 415 kts 268°
2026-05-03 20:44 38.63186 -102.89452 36039 ft 415 kts 269°
2026-05-03 20:44 38.62948 -102.96560 35730 ft 415 kts 269°
2026-05-03 20:44 38.62828 -103.00131 35549 ft 414 kts 268°
2026-05-03 20:45 38.62704 -103.03694 35033 ft 407 kts 268°
2026-05-03 20:45 38.62578 -103.07305 34463 ft 401 kts 268°
2026-05-03 20:45 38.62502 -103.09421 34188 ft 401 kts 268°
2026-05-03 20:45 38.62373 -103.13011 33675 ft 401 kts 268°
2026-05-03 20:46 38.62249 -103.16501 33178 ft 402 kts 268°
2026-05-03 20:46 38.62121 -103.20046 32675 ft 404 kts 268°
2026-05-03 20:46 38.61991 -103.23631 32163 ft 405 kts 268°
2026-05-03 20:46 38.61860 -103.27210 31638 ft 403 kts 268°
2026-05-03 20:47 38.61729 -103.30763 31103 ft 400 kts 269°
2026-05-03 20:47 38.61597 -103.34296 30578 ft 397 kts 269°
2026-05-03 20:47 38.61465 -103.37831 30057 ft 394 kts 269°
2026-05-03 20:47 38.61334 -103.41285 29538 ft 391 kts 268°
2026-05-03 20:48 38.61203 -103.44739 29020 ft 389 kts 269°
2026-05-03 20:48 38.61071 -103.48164 28514 ft 386 kts 268°
2026-05-03 20:48 38.60941 -103.51550 28008 ft 383 kts 269°
2026-05-03 20:48 38.61097 -103.54914 27491 ft 380 kts 281°
2026-05-03 20:49 38.61984 -103.58105 26956 ft 379 kts 296°
2026-05-03 20:49 38.63486 -103.60849 26423 ft 380 kts 307°
2026-05-03 20:49 38.65196 -103.63416 25911 ft 377 kts 308°
2026-05-03 20:49 38.66893 -103.65971 25415 ft 375 kts 307°
2026-05-03 20:50 38.68570 -103.68505 24930 ft 373 kts 307°
2026-05-03 20:50 38.70229 -103.71012 24430 ft 371 kts 307°
2026-05-03 20:50 38.71899 -103.73541 23951 ft 369 kts 307°
2026-05-03 20:50 38.73566 -103.76069 23452 ft 367 kts 307°
2026-05-03 20:51 38.75206 -103.78559 22982 ft 364 kts 307°
2026-05-03 20:51 38.76814 -103.81001 22502 ft 362 kts 307°
2026-05-03 20:51 38.78440 -103.83475 22023 ft 361 kts 307°
2026-05-03 20:51 38.80067 -103.85950 21543 ft 360 kts 307°
2026-05-03 20:52 38.81661 -103.88381 21076 ft 359 kts 307°
2026-05-03 20:52 38.83276 -103.90845 20601 ft 358 kts 307°
2026-05-03 20:52 38.84878 -103.93291 20132 ft 357 kts 307°
2026-05-03 20:52 38.86608 -103.95582 19663 ft 359 kts 319°
2026-05-03 20:53 38.88656 -103.97365 19185 ft 360 kts 324°
2026-05-03 20:53 38.90780 -103.99120 18700 ft 359 kts 324°
2026-05-03 20:53 38.92858 -104.00849 18230 ft 358 kts 325°
2026-05-03 20:53 38.94944 -104.02586 17762 ft 356 kts 325°
2026-05-03 20:54 38.96748 -104.04089 17365 ft 355 kts 325°
2026-05-03 20:54 39.00716 -104.07529 16371 ft 352 kts 317°
2026-05-03 20:54 39.02289 -104.09930 15919 ft 344 kts 299°
2026-05-03 20:55 39.03199 -104.12739 15755 ft 339 kts 286°
2026-05-03 20:55 39.03864 -104.15659 15614 ft 343 kts 285°
2026-05-03 20:55 39.04529 -104.18580 15432 ft 342 kts 285°
2026-05-03 20:55 39.05203 -104.21543 15265 ft 343 kts 285°
2026-05-03 20:56 39.05866 -104.24465 15046 ft 338 kts 285°
2026-05-03 20:56 39.06520 -104.27349 14889 ft 330 kts 285°
2026-05-03 20:56 39.07149 -104.30133 14701 ft 323 kts 285°
2026-05-03 20:56 39.07771 -104.32887 14531 ft 314 kts 286°
2026-05-03 20:57 39.08371 -104.35548 14386 ft 307 kts 285°
2026-05-03 20:57 39.08965 -104.38189 14207 ft 303 kts 285°
2026-05-03 20:57 39.09546 -104.40784 14032 ft 302 kts 285°
2026-05-03 20:57 39.10120 -104.43357 13881 ft 299 kts 285°
2026-05-03 20:58 39.10698 -104.45949 13864 ft 298 kts 285°
2026-05-03 20:58 39.11272 -104.48527 13803 ft 299 kts 286°
2026-05-03 20:58 39.11837 -104.51070 13739 ft 298 kts 286°
2026-05-03 20:58 39.12412 -104.53658 13635 ft 298 kts 285°
2026-05-03 20:59 39.12975 -104.56202 13538 ft 296 kts 285°
2026-05-03 20:59 39.13537 -104.58739 13440 ft 296 kts 285°
2026-05-03 20:59 39.14100 -104.61287 13358 ft 295 kts 285°
2026-05-03 20:59 39.14655 -104.63800 13280 ft 288 kts 286°
2026-05-03 21:00 39.15203 -104.66283 13185 ft 285 kts 285°
2026-05-03 21:00 39.15567 -104.67921 13109 ft 283 kts 285°
2026-05-03 21:00 39.16321 -104.71169 12822 ft 285 kts 286°
2026-05-03 21:00 39.16887 -104.73589 12328 ft 289 kts 288°
2026-05-03 21:01 39.17688 -104.75987 11820 ft 291 kts 296°
2026-05-03 21:01 39.18593 -104.78314 11507 ft 287 kts 296°
2026-05-03 21:01 39.19534 -104.80580 11075 ft 287 kts 304°
2026-05-03 21:01 39.20936 -104.82394 10687 ft 286 kts 325°
2026-05-03 21:02 39.22748 -104.83419 10275 ft 288 kts 345°
2026-05-03 21:02 39.24766 -104.83665 9720 ft 294 kts 356°
2026-05-03 21:02 39.26799 -104.83724 9356 ft 290 kts 356°
2026-05-03 21:02 39.28789 -104.83799 9171 ft 279 kts 356°
2026-05-03 21:03 39.30689 -104.83882 9141 ft 263 kts 355°
2026-05-03 21:03 39.32453 -104.83958 9127 ft 240 kts 355°
2026-05-03 21:03 39.34037 -104.84026 9104 ft 217 kts 355°
2026-05-03 21:03 39.35489 -104.84090 9081 ft 197 kts 355°
2026-05-03 21:04 39.36863 -104.84156 9049 ft 194 kts 355°
2026-05-03 21:04 39.38200 -104.84218 9062 ft 194 kts 354°
2026-05-03 21:04 39.39564 -104.84282 8859 ft 197 kts 355°
2026-05-03 21:04 39.40892 -104.84339 8649 ft 178 kts 355°
2026-05-03 21:05 39.42078 -104.84391 8416 ft 166 kts 355°
2026-05-03 21:05 39.43217 -104.84446 8213 ft 161 kts 355°
2026-05-03 21:05 39.44345 -104.84499 8008 ft 160 kts 356°
2026-05-03 21:05 39.45452 -104.84551 7804 ft 159 kts 356°
2026-05-03 21:06 39.46569 -104.84602 7593 ft 158 kts 357°
2026-05-03 21:06 39.47671 -104.84653 7386 ft 158 kts 357°
2026-05-03 21:06 39.48760 -104.84701 7174 ft 156 kts 359°
2026-05-03 21:06 39.49847 -104.84730 6984 ft 156 kts 358°
2026-05-03 21:07 39.50934 -104.84783 6778 ft 155 kts 356°
2026-05-03 21:07 39.52001 -104.84850 6598 ft 154 kts 357°
2026-05-03 21:07 39.53075 -104.84904 6371 ft 153 kts 358°
2026-05-03 21:07 39.54152 -104.84950 6143 ft 153 kts 358°
2026-05-03 21:08 39.55216 -104.85001 5942 ft 152 kts 357°
2026-05-03 21:08 39.56261 -104.85049 5827 ft 141 kts 357°
2026-05-03 21:08 39.56975 -104.85081 5825 ft 56 kts 359°
2026-05-03 21:08 39.57209 -104.85068 5825 ft 24 kts 12°
2026-05-03 21:09 39.57320 -104.85004 5825 ft 11 kts 28°
2026-05-03 21:09 39.57368 -104.84971 5825 ft 6 kts 25°
2026-05-03 21:09 39.57426 -104.84961 5825 ft 10 kts 357°
2026-05-03 21:09 39.57515 -104.84965 5825 ft 14 kts 358°
2026-05-03 21:10 39.57630 -104.84970 5824 ft 18 kts 358°
2026-05-03 21:10 39.57722 -104.84975 5824 ft 11 kts 10°
2026-05-03 21:10 39.57742 -104.84888 5824 ft 9 kts 87°
2026-05-03 21:10 39.57791 -104.84836 5824 ft 7 kts 59°
2026-05-03 21:11 39.57805 -104.84842 5824 ft 2 kts 263°
2026-05-03 21:11 39.57803 -104.84854 5824 ft 0 kts 263°